Vorticity
nan nan nan nan nan nan nan nan nan nan nan nan nan nan nan nan nan nan nan nan nan nan nan nan nan nan nan nan nan nan nan nan nan nan nan nan nan nan nan nan nan nan nan nan
nan 13 11 11 13 -3 -6 11 14 10 4 4 10 13 11 8 7 4 7 6 13 11 8 10 12 7 7 17 14 9 14 9 4 13 10 8 8 9 6 4 14 10 5 nan
nan 11 15 12 11 -2 -6 9 7 7 9 14 17 10 10 10 6 7 8 8 9 9 13 9 9 6 9 7 9 9 10 10 8 8 -1 17 14 6 12 7 2 6 4 nan
nan 9 15 14 14 -1 -7 8 11 13 17 14 9 7 9 13 9 7 6 14 11 7 13 8 7 6 7 8 9 7 10 10 10 6 10 4 4 13 13 9 4 3 3 nan
nan 14 13 13 14 1 -2 8 9 9 14 20 9 10 13 8 9 7 7 10 14 5 11 17 16 14 6 7 9 7 8 8 13 14 16 12 14 9 6 7 10 11 7 nan
nan 13 11 1 8 1 2 4 8 15 20 15 8 11 13 9 7 11 14 9 5 11 6 12 17 20 18 19 12 8 6 7 13 8 8 15 20 23 14 13 13 12 13 nan
nan 15 13 5 7 -5 -2 13 12 16 18 14 13 10 9 12 3 8 17 14 11 15 11 1 6 8 12 10 13 16 7 9 8 11 9 10 6 9 16 17 18 16 14 nan
nan 12 9 9 5 4 0 3 11 14 18 19 16 10 9 8 16 7 0 15 29 8 -1 3 4 4 6 10 11 11 11 11 9 12 7 3 15 14 10 10 8 13 13 nan
nan 11 12 8 0 3 8 -1 7 17 20 21 14 7 7 7 10 8 13 11 9 5 6 11 11 9 10 12 6 8 14 9 9 10 11 10 15 11 9 11 7 2 7 nan
nan 5 10 10 2 3 10 10 5 8 16 24 15 8 6 9 7 9 11 4 3 9 13 12 12 11 12 11 8 8 7 13 12 9 8 8 14 10 10 11 8 6 5 nan
nan 5 8 10 6 10 11 7 2 5 17 27 17 13 15 11 5 10 6 6 9 11 10 10 10 12 13 12 13 10 8 8 7 9 10 16 11 8 8 9 6 8 10 nan
nan 10 8 6 10 12 1 6 13 9 9 9 11 9 13 18 17 20 8 8 11 6 7 8 11 10 10 15 14 11 9 12 12 11 7 12 5 7 14 11 10 7 8 nan
nan 11 6 9 16 13 4 1 4 12 17 7 5 2 5 8 11 16 15 15 13 7 9 12 11 12 9 9 9 12 10 11 9 10 14 11 11 9 7 7 13 12 12 nan
nan 12 15 13 11 11 2 1 3 8 11 11 10 8 4 9 12 10 15 14 11 14 11 11 11 12 12 8 11 8 14 13 10 7 9 6 12 12 10 11 12 15 15 nan
nan 12 10 12 12 13 5 4 8 10 13 12 10 6 9 19 14 11 13 12 8 6 9 11 11 10 10 11 13 16 14 10 13 10 11 13 9 11 13 15 11 16 15 nan
nan 16 15 13 10 3 3 12 10 7 14 14 10 8 11 16 17 12 9 7 7 8 9 10 9 11 13 13 9 13 12 10 14 13 8 16 8 6 13 13 11 13 13 nan
nan 15 15 15 11 1 1 9 6 11 16 13 11 9 10 8 7 11 11 8 12 13 10 12 11 10 12 12 16 11 7 10 10 14 16 15 13 6 9 11 11 11 10 nan
nan 13 9 3 2 7 13 6 5 16 18 12 10 11 11 9 10 7 9 13 9 10 13 11 11 10 12 16 14 10 11 10 7 10 18 18 13 11 11 11 9 7 5 nan
nan 8 -1 -4 2 6 10 10 15 14 10 13 13 13 9 9 9 11 13 11 10 11 12 12 12 12 14 16 12 6 9 11 10 9 10 11 12 10 9 8 7 9 12 nan
nan -9 -4 5 9 12 12 11 13 13 10 11 13 13 12 9 11 11 8 13 13 10 10 9 10 12 11 9 12 11 12 14 9 8 10 11 11 9 8 9 6 3 11 nan
nan 4 12 14 13 9 12 13 12 11 7 9 15 14 7 11 14 9 10 14 12 13 13 11 9 13 13 10 9 12 18 12 9 16 15 9 6 8 10 9 10 10 10 nan
nan 14 9 8 11 13 11 12 11 11 10 11 12 12 10 13 13 13 13 11 13 14 11 10 11 17 16 12 12 13 17 15 12 11 13 14 9 8 11 10 9 9 10 nan
nan 8 12 11 11 15 14 10 10 10 9 13 12 10 11 11 12 12 15 10 11 11 10 8 15 17 13 12 10 12 13 9 11 8 7 7 9 14 13 9 12 11 7 nan
nan 11 11 15 13 8 11 12 13 11 11 12 12 11 13 11 11 12 10 12 13 10 11 13 16 14 11 12 11 11 4 8 14 10 9 8 8 8 10 11 11 11 9 nan
nan 13 12 12 11 10 12 12 10 10 14 12 10 10 11 13 11 12 12 12 12 10 12 17 18 14 12 11 10 7 6 12 14 9 8 12 11 8 7 8 12 11 10 nan
nan 13 12 11 12 10 11 13 10 10 14 14 12 12 11 12 13 13 12 11 10 13 15 17 17 12 10 12 13 11 10 9 11 11 10 9 12 11 8 9 12 10 9 nan
nan nan nan nan nan nan nan nan nan nan nan nan nan nan nan nan nan nan nan nan nan nan nan nan nan nan nan nan nan nan nan nan nan nan nan nan nan nan nan nan nan nan nan nan
CAPE
67 69 70 58 45 6 0 17 8 29 133 37 1 48 0 0 1 14 0 6 26 3 69 36 6 10 75 35 39 19 28 79 266 106 53 33 2 80 19 544 3 74 373 19
85 84 83 84 51 6 6 8 70 240 128 2 13 11 0 0 2 30 11 0 4 2 0 22 10 54 173 170 112 96 180 112 138 25 127 60 1 0 0 23 42 31 450 56
59 90 74 97 55 21 14 38 125 139 142 0 29 10 3 1 5 9 22 0 0 7 0 18 25 9 59 34 93 0 109 25 0 159 71 37 85 2 0 0 192 0 0 0
54 46 75 89 59 19 4 101 50 15 25 86 96 181 11 3 4 1 37 22 0 79 53 6 63 14 88 1 0 0 8 0 0 0 12 4 24 11 6 0 0 0 12 0
97 93 112 81 62 44 28 71 97 100 40 71 83 56 50 7 28 13 63 46 15 127 118 113 102 88 187 1 7 0 4 105 0 23 19 0 0 0 0 0 0 0 0 0
95 88 85 61 19 62 43 12 140 146 70 77 98 96 188 64 93 72 73 72 162 175 270 420 384 358 359 110 189 149 189 241 145 27 0 0 0 0 0 0 0 0 0 0
77 105 56 15 3 50 62 16 280 134 127 55 19 175 119 52 73 405 159 245 328 287 195 232 190 97 97 163 146 208 220 269 253 165 0 0 0 0 0 0 0 0 0 0
89 116 58 13 1 0 46 113 576 294 30 88 184 417 286 89 107 310 322 315 397 451 377 310 61 109 0 0 0 2 42 75 67 2 0 0 0 0 0 0 0 0 0 0
89 62 36 1 2 0 12 8 75 266 322 230 56 104 283 179 474 310 28 185 436 429 679 913 257 292 0 5 0 0 0 0 79 0 11 0 0 0 0 0 0 0 0 0
98 16 1 2 0 0 13 32 18 564 151 398 300 101 211 575 383 255 172 10 26 134 1221 696 973 410 5 140 32 0 0 7 0 0 20 0 0 0 0 0 0 0 0 0
60 1 1 0 0 4 10 14 5 320 496 440 468 275 187 455 431 417 263 226 147 886 559 1031 892 629 383 187 0 0 0 55 0 40 0 0 0 0 0 1 0 0 0 0
14 3 12 1 3 7 8 3 0 3 527 731 609 306 421 408 569 866 406 619 369 525 703 804 1178 306 0 235 172 0 43 59 239 3 27 0 0 0 0 0 0 0 0 0
6 11 2 0 2 4 1 0 0 202 382 499 525 522 183 221 426 791 605 1082 539 650 916 1041 865 64 658 18 491 268 0 0 24 0 0 0 0 0 0 0 0 0 0 0
14 4 1 3 1 3 3 6 16 954 692 397 349 157 120 76 253 477 891 1218 1242 1178 1259 1331 0 151 339 776 434 400 11 0 0 0 0 0 0 0 0 0 0 0 0 0
9 4 1 0 1 3 6 4 72 589 732 303 313 116 116 101 219 190 554 1028 926 935 566 0 858 378 441 174 197 455 0 0 99 92 0 0 0 0 0 0 0 0 0 0
0 0 0 0 0 0 5 309 395 124 1053 654 346 36 107 110 172 228 508 604 843 722 899 417 208 1 524 71 297 0 0 0 0 0 0 0 0 0 0 0 0 0 0 0
0 0 0 0 0 0 224 177 8 0 932 737 140 67 22 103 130 161 270 409 588 553 322 134 88 1 78 3 442 0 0 0 0 0 0 0 0 0 0 0 2 0 0 0
0 0 0 0 0 0 23 0 0 0 388 744 26 0 93 2 323 28 37 512 300 12 2 1 126 0 133 136 0 0 0 0 0 0 0 0 0 0 3 1 0 0 0 0
0 0 0 38 184 624 18 0 0 91 179 97 0 0 1 1 2 2 2 40 1 1 7 2 0 1 1 0 0 0 1 0 0 0 0 0 0 1 1 0 1 0 0 1
0 3 224 87 31 0 0 76 83 0 56 0 1 4 9 1 10 7 1 1 1 5 3 0 1 1 0 0 0 0 1 2 0 0 2 1 1 0 1 4 5 1 0 0
445 386 6 0 0 86 62 3 6 23 18 2 0 3 6 0 2 7 2 8 0 5 2 8 7 0 2 2 1 0 1 0 0 0 0 2 2 1 1 0 0 0 0 0
191 101 1 6 62 17 0 3 5 1 2 3 9 5 1 1 2 3 5 1 1 6 4 11 13 0 3 2 2 2 1 0 0 0 1 1 5 1 0 0 0 0 0 0
102 6 0 6 0 11 10 1 8 2 0 1 9 0 5 3 1 3 0 1 12 14 26 6 3 5 3 2 2 1 1 1 1 1 0 0 0 0 0 0 0 0 0 0
0 1 0 1 6 4 5 3 2 1 0 1 2 5 3 5 2 1 0 0 0 9 9 7 5 2 0 1 3 1 0 0 0 0 0 0 0 0 0 0 0 0 0 0
0 1 6 7 4 1 1 0 1 0 1 3 7 7 1 3 4 6 1 5 5 3 9 5 1 0 1 2 5 0 0 0 0 0 0 0 0 0 1 0 0 0 0 0
1 1 3 1 1 1 1 0 1 2 2 0 12 13 7 4 3 3 17 13 10 6 4 2 0 0 1 3 0 0 0 4 0 0 0 0 0 1 0 0 0 0 0 0
8 5 0 0 0 6 3 1 0 1 0 2 4 3 6 0 7 7 6 10 7 4 5 1 0 0 2 7 0 0 0 0 4 5 4 2 0 0 0 0 0 0 0 0